Charleston, SC

9:06 AM EDT on April 26, 2018 (GMT -0400)
Charleston Air Force Base-International

Weather History for KCHS - January, 2012

Change the Weather History Date:

Sunday, January 15, 2012

  Actual Average Record
Temperature  
Mean Temperature 47 °F 48 °F  
Max Temperature 57 °F 59 °F 79 °F (2007)
Min Temperature 36 °F 37 °F 17 °F (1948)
Degree Days  
Heating Degree Days 18 17  
Month to date heating degree days 204 255  
Since 1 July heating degree days 802 993  
Cooling Degree Days 0 0  
Month to date cooling degree days 0 0  
Year to date cooling degree days 0 0  
Moisture  
Dew Point 25 °F    
Average Humidity 45    
Maximum Humidity 64    
Minimum Humidity 26    
Precipitation  
Precipitation 0.00 in 0.12 in 1.40 in (1966)
Month to date precipitation 0.10 1.77  
Year to date precipitation 0.10 1.77  
Snow  
Snow 0.00 in -0.10 in - ()
Month to date snowfall 0.0  
Since 1 July snowfall 0.0 0.3  
Snow Depth 0.00 in    
Sea Level Pressure  
Sea Level Pressure 30.38 in    
Wind  
Wind Speed 9 mph (NW)    
Max Wind Speed 18 mph    
Max Gust Speed 25 mph    
Visibility 10 miles    
Events      
T = Trace of Precipitation, MM = Missing Value Source: NWS Daily Summary

Daily Weather History Graph

Daily Weather History Graph

Search for Another Location

Airport or City:

Astronomy

Jan. 15, 2012 Rise Set
Actual Time 7:23 AM EST 5:36 PM EST
Civil Twilight 6:56 AM EST 6:02 PM EST
Nautical Twilight 6:25 AM EST 6:33 PM EST
Astronomical Twilight 5:56 AM EST 7:02 PM EST
Moon No Moon Rise 11:05 AM EST (1/15)
Length of Visible Light 11h 06m
Length of Day
10h 13m
Waning Gibbous, 58% of the Moon is Illuminated
Jan 15
Waning Gibbous
Jan 16
Last Quarter
Jan 23
New
Jan 30
First Quarter
Feb 7
Full

Hourly Weather History & Observations

Time (EST) Temp. Windchill Dew Point Humidity Pressure Visibility Wind Dir Wind Speed Gust Speed Precip Events Conditions
12:56 AM 39.0 °F 33.4 °F 26.1 °F 60% 30.23 in 10.0 mi SW 8.1 mph - N/A   Clear
1:56 AM 43.0 °F 37.7 °F 24.1 °F 47% 30.21 in 10.0 mi SW 9.2 mph - N/A   Clear
2:56 AM 43.0 °F 37.7 °F 24.1 °F 47% 30.20 in 10.0 mi SW 9.2 mph - N/A   Clear
3:56 AM 43.0 °F 36.8 °F 23.0 °F 45% 30.22 in 10.0 mi West 11.5 mph - N/A   Clear
4:56 AM 43.0 °F 36.4 °F 21.9 °F 43% 30.23 in 10.0 mi West 12.7 mph - N/A   Clear
5:56 AM 42.1 °F 35.7 °F 23.0 °F 47% 30.26 in 10.0 mi West 11.5 mph - N/A   Clear
6:56 AM 41.0 °F 35.2 °F 23.0 °F 49% 30.29 in 10.0 mi West 9.2 mph - N/A   Clear
7:56 AM 41.0 °F 35.2 °F 24.1 °F 51% 30.32 in 10.0 mi West 9.2 mph - N/A   Clear
8:56 AM 44.1 °F 38.6 °F 25.0 °F 47% 30.36 in 10.0 mi WNW 10.4 mph - N/A   Clear
9:56 AM 48.0 °F - 25.0 °F 41% 30.40 in 10.0 mi NW 13.8 mph - N/A   Clear
10:56 AM 51.1 °F - 26.1 °F 38% 30.40 in 10.0 mi NNW 15.0 mph - N/A   Clear
11:56 AM 54.0 °F - 25.0 °F 33% 30.40 in 10.0 mi NNW 15.0 mph 20.7 mph N/A   Clear
12:56 PM 55.0 °F - 25.0 °F 31% 30.39 in 10.0 mi North 11.5 mph 25.3 mph N/A   Clear
1:56 PM 55.9 °F - 24.1 °F 29% 30.38 in 10.0 mi North 13.8 mph 18.4 mph N/A   Clear
2:56 PM 55.9 °F - 24.1 °F 29% 30.39 in 10.0 mi NNW 9.2 mph 19.6 mph N/A   Clear
3:56 PM 55.0 °F - 21.9 °F 28% 30.41 in 10.0 mi NNW 10.4 mph - N/A   Clear
4:56 PM 52.0 °F - 23.0 °F 32% 30.43 in 10.0 mi North 10.4 mph - N/A   Clear
5:56 PM 48.0 °F - 24.1 °F 39% 30.45 in 10.0 mi NNE 4.6 mph - N/A   Clear
6:56 PM 43.0 °F 41.3 °F 26.1 °F 51% 30.47 in 10.0 mi NE 3.5 mph - N/A   Clear
7:56 PM 43.0 °F 41.3 °F 27.0 °F 53% 30.49 in 5.0 mi ENE 3.5 mph - N/A   Haze
8:56 PM 41.0 °F 39.0 °F 28.0 °F 60% 30.52 in 10.0 mi ENE 3.5 mph - N/A   Clear
9:56 PM 39.9 °F 35.8 °F 28.0 °F 63% 30.53 in 10.0 mi ENE 5.8 mph - N/A   Clear
10:56 PM 39.9 °F 36.7 °F 27.0 °F 60% 30.53 in 10.0 mi East 4.6 mph - N/A   Clear
11:56 PM 39.0 °F - 27.0 °F 62% 30.53 in 10.0 mi Calm Calm - N/A   Clear